Printer-friendly version
Follow the MPC on Twitter Follow the MPC on Facebook The MPC blog
Minor Planet Center

MPEC 2009-Q67 : COMET P/2009 Q1 (HILL)

The following Minor Planet Electronic Circular may be linked-to from your own Web pages, but must not otherwise be redistributed electronically.

A form allowing access to any MPEC is at the bottom of this page.


Read MPEC 2009-Q66 Read MPEC 2009-Q68


M.P.E.C. 2009-Q67                                Issued 2009 Aug. 29, 15:57 UT

     The Minor Planet Electronic Circulars contain information on unusual
         minor planets and routine data on comets.  They are published
   on behalf of Commission 20 of the International Astronomical Union by the
          Minor Planet Center, Smithsonian Astrophysical Observatory,
                          Cambridge, MA 02138, U.S.A.

             Prepared using the Tamkin Foundation Computer Network

                              MPC@CFA.HARVARD.EDU
          URL http://www.cfa.harvard.edu/iau/mpc.html  ISSN 1523-6714

                            COMET P/2009 Q1 (HILL)

Observations:
    PK09Q010  C2009 08 16.31804 23 31 53.37 +01 21 09.6          19.7 N EQ067691
    PK09Q010  C2009 08 16.33565 23 31 53.06 +01 21 02.2          19.3 N EQ067691
    PK09Q010  C2009 08 16.35327 23 31 52.80 +01 20 55.2          19.4 N EQ067691
    PK09Q010  C2009 08 27.40082 23 28 45.19 -00 00 44.8                 EQ067703
    PK09Q010  C2009 08 27.40813 23 28 45.01 -00 00 51.4          17.9 T EQ067703
    PK09Q010  C2009 08 27.41534 23 28 45.01 -00 00 53.3                 EQ067703
    PK09Q010  C2009 08 27.42260 23 28 44.68 -00 00 57.8                 EQ067703
    PK09Q010  C2009 08 27.45192 23 28 44.18 -00 01 11.2                 EQ067703
    PK09Q010  C2009 08 27.45582 23 28 44.00 -00 01 14.4          17.9 T EQ067703
    PK09Q010  C2009 08 27.45963 23 28 43.89 -00 01 16.7                 EQ067703
    PK09Q010  C2009 08 27.46466 23 28 43.89 -00 01 18.9                 EQ067703
    PK09Q010  C2009 08 28.07582 23 28 31.04 -00 06 19.5          19.0 N EQ067204
    PK09Q010  C2009 08 28.10089 23 28 30.48 -00 06 31.5                 EQ067204
    PK09Q010  C2009 08 28.10755 23 28 30.26 -00 06 34.8                 EQ067118
    PK09Q010  C2009 08 28.11288 23 28 30.26 -00 06 39.9                 EQ067118
    PK09Q010  C2009 08 28.26594 23 28 27.16 -00 07 52.7          18.9 T EQ067H06
    PK09Q010  C2009 08 28.27804 23 28 26.80 -00 07 59.5          18.5 T EQ067H06
    PK09Q010  C2009 08 28.28286 23 28 26.62 -00 08 01.8          18.6 N EQ067H36
    PK09Q010  C2009 08 28.28958 23 28 26.40 -00 08 05.2                 EQ067703
    PK09Q010  C2009 08 28.29016 23 28 26.48 -00 08 06.1          19.2 N EQ067H36
    PK09Q010  C2009 08 28.29500 23 28 26.29 -00 08 07.0          17.7 T EQ067703
    PK09Q010  C2009 08 28.29748 23 28 26.38 -00 08 08.8          19.0 N EQ067H36
    PK09Q010  C2009 08 28.30042 23 28 26.18 -00 08 08.4                 EQ067703
    PK09Q010  C2009 08 28.30564 23 28 26.11 -00 08 11.7                 EQ067703
    PK09Q010  C2009 08 28.31312 23 28 25.95 -00 08 16.6          17.8 T EQ067H06
    PK09Q010  C2009 08 28.31434 23 28 25.93 -00 08 17.3          18.8 T EQ067H06
    PK09Q010  C2009 08 28.34174 23 28 25.31 -00 08 29.5          18.7 T EQ067H06
    PK09Q010  C2009 08 28.34459 23 28 25.26 -00 08 31.2                 EQ067H06
    PK09Q010  C2009 08 28.34745 23 28 25.16 -00 08 32.6                 EQ067H06
    PK09Q010  C2009 08 28.66593 23 28 18.35 -00 11 11.1          18.6 T EQ067349
    PK09Q010  C2009 08 28.67338 23 28 18.20 -00 11 14.4                 EQ067349
    PK09Q010  C2009 08 28.96255 23 28 11.92 -00 13 38.9          20.0 T EQ067J87
    PK09Q010  C2009 08 28.97198 23 28 11.71 -00 13 43.4          20.0 T EQ067J87
    PK09Q010  C2009 08 28.98140 23 28 11.50 -00 13 47.8          20.3 T EQ067J87
    PK09Q010  C2009 08 28.98264 23 28 11.42 -00 13 48.3          19.2 N EQ067176
    PK09Q010  C2009 08 28.98878 23 28 11.35 -00 13 51.7          19.0 N EQ067176
    PK09Q010  C2009 08 28.99416 23 28 11.17 -00 13 54.1          18.9 N EQ067176
    PK09Q010  C2009 08 28.99569 23 28 11.14 -00 13 54.2          19.0 N EQ067176
    PK09Q010  C2009 08 29.10695 23 28 08.47 -00 14 50.8          18.6 T EQ067A79
    PK09Q010  C2009 08 29.11176 23 28 08.30 -00 14 52.7          18.4 T EQ067A79
    PK09Q010  C2009 08 29.26255 23 28 05.41 -00 16 07.1          19.0 T EQ067H10
    PK09Q010  C2009 08 29.27329 23 28 04.94 -00 16 11.9          19.1 T EQ067H10
    PK09Q010  C2009 08 29.27653 23 28 04.90 -00 16 15.6                 EQ067703
    PK09Q010  C2009 08 29.28037 23 28 04.80 -00 16 16.7                 EQ067703
    PK09Q010  C2009 08 29.28418 23 28 04.80 -00 16 17.7          17.6 T EQ067703
    PK09Q010  C2009 08 29.28661 23 28 04.67 -00 16 21.3          19.2 T EQ067H10
    PK09Q010  C2009 08 29.28800 23 28 04.58 -00 16 20.4                 EQ067703
    PK09Q010  C2009 08 29.30902 23 28 04.09 -00 16 32.4          19.6 N EQ067H36
    PK09Q010  C2009 08 29.31640 23 28 03.90 -00 16 36.3                 EQ067H36
    PK09Q010  C2009 08 29.32327 23 28 03.82 -00 16 39.0          17.3 T EQ067703
    PK09Q010  C2009 08 29.33107 23 28 03.54 -00 16 41.9          17.5 T EQ067703
    PK09Q010  C2009 08 29.33877 23 28 03.43 -00 16 45.8          17.7 T EQ067703
    PK09Q010  C2009 08 29.34638 23 28 03.14 -00 16 50.9          17.3 T EQ067703

Observer details:
118 Modra.  Observers S. Gajdos, J. Vilagi.  0.6-m f/5.5 reflector + CCD.
176 Observatorio Astronomico de Consell.  Observers A. Lopez, R. Pacheco.
    0.41-m f/4 reflector + CCD.
204 Schiaparelli Observatory.  Observer L. Buzzi.  0.60-m f/4.64 reflector
    + CCD.
349 Ageo.  Observer K. Kadota.  0.25-m f/5.0 reflector + CCD.
691 Steward Observatory, Kitt Peak.  Observer M. T. Read.  0.9-m f/3 reflector
    + CCD.
703 Catalina Sky Survey.  Observer R. E. Hill.  Measurers E. C. Beshore,
    A. Boattini, A. R. Gibbs, A. D. Grauer, R. E. Hill, R. A. Kowalski,
    S. M. Larson.  0.68-m Schmidt + CCD.
A79 Zvezdno Obshtestvo Observatory, Plana.  Observer F. Fratev.  0.35-m f/3.4
    reflector + CCD.
H06 RAS Observatory, Mayhill.  Observers R. Ligustri, H. Sato, E. Guido,
    G. Sostero.  0.25-m f/3.4 reflector + CCD.
H10 Tzec Maun Observatory, Mayhill.  Observer D. Chestnov.  0.41-m f/9
    Ritchey-Chretien + CCD.
H36 Sandlot Observatory, Scranton.  Observer G. Hug.  0.56-m reflector + CCD.
J87 La Canada.  Observer J. Lacruz.  0.40-m Ritchey-Chretien + CCD.

Orbital elements:
    P/2009 Q1 (Hill)
T 2009 July 19.299 TT                                   MPC
q   2.84860              (2000.0)            P               Q
n   0.075855       Peri.  162.358       +0.916898       +0.398198
a   5.52688        Node   173.964       -0.390208       +0.908639
e   0.48459        Incl.   14.964       -0.083884       +0.125752
P  13.0
From 49 observations 2009 Aug. 16-29.

Ephemeris:
    P/2009 Q1 (Hill)
Date    TT    R. A. (2000) Decl.     Delta      r     Elong.  Phase   m1    m2
2009 08 27    23 28.90   +00 02.5    1.889    2.862   160.6     6.7  17.4
2009 09 06    23 25.00   -01 23.2    1.868    2.869   171.7     2.9  17.4
2009 09 16    23 20.69   -02 54.2    1.875    2.879   176.5     1.2  17.5
2009 09 26    23 16.66   -04 23.0    1.908    2.890   165.4     5.0  17.5
2009 10 06    23 13.58   -05 42.9    1.969    2.902   154.3     8.6  17.6
2009 10 16    23 11.96   -06 48.6    2.053    2.917   143.6    11.7  17.7
2009 10 26    23 12.12   -07 37.2    2.159    2.933   133.4    14.3  17.8

Brian G. Marsden             (C) Copyright 2009 MPC           M.P.E.C. 2009-Q67

Read MPEC 2009-Q66 Read MPEC 2009-Q68


MPEC number:

Enter an MPEC number in one of the following forms:

  • 1997-B01 (the full form)
  • J97B01 (the packed version of the full form)
  • B01 (the abbreviated form)

Valid HTML 4.01!